EW4565 Weather Reports


Display with metric or nautical units.
time (UTC)temp
F
wind
direction
speed
MPH
gust
MPH
rain 1hr
in
rain 24hr
in
rain mn
in
humidity
%
barometer
mb
20260510034259 65 114 0.0 1.0 0.00 0.00 0.00 49 1016.3
20260510033757 65 114 0.0 1.0 0.00 0.00 0.00 49 1016.3
20260510033258 65 114 0.0 1.0 0.00 0.00 0.00 49 1016.1
20260510032756 65 114 0.0 0.0 0.00 0.00 0.00 51 1016.1
20260510032555 66 114 0.0 0.0 0.00 0.00 0.00 51 1016.1
20260510031757 66 114 0.0 0.0 0.00 0.00 0.00 53 1015.9
20260510031257 66 114 0.0 0.0 0.00 0.00 0.00 52 1016.1
20260510030757 67 114 0.0 0.0 0.00 0.00 0.00 50 1016.1
20260510030553 67 114 0.0 0.0 0.00 0.00 0.00 51 1015.9
20260510025756 68 114 0.0 0.0 0.00 0.00 0.00 51 1015.9
20260510025551 68 114 0.0 0.0 0.00 0.00 0.00 52 1015.8
20260510024759 69 114 0.0 1.0 0.00 0.00 0.00 52 1015.8
20260510024258 69 114 0.0 1.0 0.00 0.00 0.00 50 1015.8
20260510024045 70 114 0.0 2.0 0.00 0.00 0.00 47 1015.7
20260510023248 70 114 1.0 3.0 0.00 0.00 0.00 46 1015.6
20260510023031 71 114 0.0 3.0 0.00 0.00 0.00 43 1015.6
20260510022236 71 115 0.0 2.0 0.00 0.00 0.00 44 1015.6
20260510021739 72 114 0.0 1.0 0.00 0.00 0.00 44 1015.5
20260510021240 72 115 0.0 1.0 0.00 0.00 0.00 45 1015.7
20260510020740 73 115 0.0 1.0 0.00 0.00 0.00 46 1015.6
20260510020239 73 115 0.0 4.0 0.00 0.00 0.00 44 1015.6
20260510015743 73 114 1.0 4.0 0.00 0.00 0.00 38 1015.6
20260510015546 73 152 0.0 3.0 0.00 0.00 0.00 38 1015.6
20260510014738 73 152 0.0 3.0 0.00 0.00 0.00 38 1015.7
20260510014236 74 159 0.0 2.0 0.00 0.00 0.00 40 1015.7
20260510013734 74 159 0.0 3.0 0.00 0.00 0.00 46 1015.8
20260510013237 73 151 0.0 3.0 0.00 0.00 0.00 44 1015.8
20260510012738 73 135 0.0 3.0 0.00 0.00 0.00 46 1015.8
20260510012235 73 135 1.0 3.0 0.00 0.00 0.00 46 1015.8
20260510011733 73 134 0.0 3.0 0.00 0.00 0.00 37 1015.9
20260510011235 73 134 0.0 3.0 0.00 0.00 0.00 37 1015.9
20260510010735 72 133 0.0 3.0 0.00 0.00 0.00 42 1015.9
20260510010234 73 134 0.0 3.0 0.00 0.00 0.00 40 1015.9
20260510010040 73 134 0.0 3.0 0.00 0.00 0.00 39 1016.1
20260510005235 73 134 0.0 2.0 0.00 0.00 0.00 34 1016.1
20260510004735 73 133 0.0 3.0 0.00 0.00 0.00 35 1016.1
20260510004235 73 133 0.0 5.0 0.00 0.00 0.00 36 1016.1
20260510003735 73 152 0.0 5.0 0.00 0.00 0.00 35 1016.1
20260510003237 73 143 0.0 4.0 0.00 0.00 0.00 35 1015.9
20260510002731 74 143 0.0 4.0 0.00 0.00 0.00 35 1015.9
20260510002531 74 163 0.0 2.0 0.00 0.00 0.00 36 1015.9
20260510002032 74 163 0.0 2.0 0.00 0.00 0.00 35 1015.9
20260510001229 75 163 0.0 5.0 0.00 0.00 0.00 36 1016.1
20260510000730 75 163 0.0 5.0 0.00 0.00 0.00 34 1016.1
20260510000230 75 166 1.0 6.0 0.00 0.00 0.00 35 1016.1
20260509235729 74 166 1.0 6.0 0.00 0.00 0.00 35 1016.1
20260509235229 75 56 1.0 6.0 0.00 0.00 0.00 34 1016.1
20260509234730 75 224 1.0 6.0 0.00 0.00 0.00 33 1016.1
20260509234229 75 47 1.0 6.0 0.00 0.00 0.00 35 1016.1
20260509233729 75 127 0.0 4.0 0.00 0.00 0.00 36 1016.1
20260509233230 74 128 1.0 6.0 0.00 0.00 0.00 36 1016.1
20260509233027 74 128 1.0 6.0 0.00 0.00 0.00 35 1016.3
20260509232339 75 66 1.0 7.0 0.00 0.00 0.00 34 1016.3
20260509232315 74 60 1.0 7.0 0.00 0.00 0.00 35 1016.2
20260509231231 74 185 2.0 7.0 0.00 0.00 0.00 36 1016.2
20260509230731 74 44 1.0 7.0 0.00 0.00 0.00 34 1016.3
20260509230229 74 52 2.0 6.0 0.00 0.00 0.00 34 1016.4
20260509225728 75 47 2.0 6.0 0.00 0.00 0.00 35 1016.4
20260509225231 75 107 1.0 5.0 0.00 0.00 0.00 33 1016.4
20260509224941 75 332 1.0 5.0 0.00 0.00 0.00 39 1016.4
20260509224936 74 335 1.0 5.0 0.00 0.00 0.00 37 1016.5
20260509224857 75 332 1.0 4.0 0.00 0.00 0.00 37 1016.4
20260509223229 74 297 1.0 4.0 0.00 0.00 0.00 39 1016.5
20260509222728 74 297 1.0 4.0 0.00 0.00 0.00 39 1016.5
20260509222230 73 299 1.0 4.0 0.00 0.00 0.00 40 1016.6
20260509221729 73 302 0.0 3.0 0.00 0.00 0.00 40 1016.6
20260509221229 72 56 1.0 5.0 0.00 0.00 0.00 40 1016.6
20260509220729 72 56 1.0 5.0 0.00 0.00 0.00 40 1016.7
20260509220228 72 59 1.0 6.0 0.00 0.00 0.00 40 1016.7
20260509215730 72 60 1.0 6.0 0.00 0.00 0.00 40 1016.7
20260509215229 72 254 1.0 4.0 0.00 0.00 0.00 42 1016.8
20260509214729 71 225 1.0 5.0 0.00 0.00 0.00 43 1016.9
20260509214230 71 247 1.0 5.0 0.00 0.00 0.00 42 1016.8
20260509213730 71 56 1.0 4.0 0.00 0.00 0.00 43 1017.0
20260509213530 71 54 1.0 5.0 0.00 0.00 0.00 41 1017.0
20260509212730 71 47 1.0 5.0 0.00 0.00 0.00 41 1017.0
20260509212231 71 262 1.0 6.0 0.00 0.00 0.00 44 1017.0
20260509211730 71 260 1.0 6.0 0.00 0.00 0.00 45 1017.2
20260509211229 71 222 1.0 3.0 0.00 0.00 0.00 45 1017.2
20260509210730 71 224 1.0 6.0 0.00 0.00 0.00 47 1017.3
20260509210230 70 253 1.0 6.0 0.00 0.00 0.00 47 1017.4
20260509205730 69 43 1.0 6.0 0.00 0.00 0.00 47 1017.4
20260509205231 69 46 2.0 7.0 0.00 0.00 0.00 47 1017.3
20260509204730 70 52 1.0 7.0 0.00 0.00 0.00 48 1017.3
20260509204230 69 232 1.0 5.0 0.00 0.00 0.00 50 1017.3
20260509203731 69 218 1.0 5.0 0.00 0.00 0.00 49 1017.3
20260509203230 69 147 1.0 5.0 0.00 0.00 0.00 50 1017.4
20260509202731 69 149 2.0 7.0 0.00 0.00 0.00 49 1017.6
20260509202230 69 133 1.0 7.0 0.00 0.00 0.00 49 1017.5
20260509201837 68 104 1.0 6.0 0.00 0.00 0.00 51 1017.6
20260509201816 68 90 1.0 6.0 0.00 0.00 0.00 51 1017.5
20260509201029 68 238 1.0 7.0 0.00 0.00 0.00 52 1017.8
20260509200230 67 240 2.0 7.0 0.00 0.00 0.00 54 1017.8
20260509195728 67 67 2.0 4.0 0.00 0.00 0.00 54 1017.8
20260509195232 67 110 1.0 6.0 0.00 0.00 0.00 54 1017.9
20260509194733 67 188 2.0 6.0 0.00 0.00 0.00 53 1017.9
20260509194541 67 75 2.0 7.0 0.00 0.00 0.00 54 1018.0
20260509194039 66 45 2.0 7.0 0.00 0.00 0.00 55 1018.0
20260509193539 66 71 1.0 7.0 0.00 0.00 0.00 54 1018.1
20260509192732 66 235 1.0 3.0 0.00 0.00 0.00 54 1018.1
20260509192527 66 236 1.0 3.0 0.00 0.00 0.00 55 1018.2
20260509191826 65 232 1.0 4.0 0.00 0.00 0.00 57 1018.3
20260509191811 65 235 1.0 4.0 0.00 0.00 0.00 55 1018.2
20260509190731 64 228 1.0 4.0 0.00 0.00 0.00 57 1018.3
20260509190233 64 129 1.0 4.0 0.00 0.00 0.00 56 1018.3
20260509185732 64 131 1.0 4.0 0.00 0.00 0.00 56 1018.4
20260509185232 64 154 1.0 4.0 0.00 0.00 0.00 56 1018.5
20260509184733 64 155 1.0 4.0 0.00 0.00 0.00 59 1018.4
20260509184525 63 209 1.0 4.0 0.00 0.00 0.00 60 1018.6
20260509183733 63 209 1.0 4.0 0.00 0.00 0.00 56 1018.6
20260509183231 63 182 1.0 3.0 0.00 0.00 0.00 57 1018.6
20260509182731 63 198 1.0 3.0 0.00 0.00 0.00 59 1018.7
20260509182233 62 198 1.0 4.0 0.00 0.00 0.00 57 1018.8
20260509181732 63 204 1.0 4.0 0.00 0.00 0.00 59 1018.8
20260509181232 62 234 1.0 3.0 0.00 0.00 0.00 59 1018.9
20260509180731 62 235 1.0 5.0 0.00 0.00 0.00 60 1018.9
20260509180232 62 237 1.0 5.0 0.00 0.00 0.00 61 1019.0
20260509175731 62 233 1.0 4.0 0.00 0.00 0.00 62 1019.0
20260509175231 62 245 1.0 4.0 0.00 0.00 0.00 62 1019.0
20260509174733 62 245 1.0 4.0 0.00 0.00 0.00 61 1018.9
20260509174233 61 243 0.0 3.0 0.00 0.00 0.00 65 1018.9
20260509174035 61 239 1.0 3.0 0.00 0.00 0.00 64 1019.0
20260509173230 60 235 1.0 4.0 0.00 0.00 0.00 63 1019.0
20260509172729 60 237 1.0 4.0 0.00 0.00 0.00 64 1018.9
20260509172231 60 312 1.0 4.0 0.00 0.00 0.00 64 1019.0
20260509172033 60 315 1.0 4.0 0.00 0.00 0.00 65 1019.0
20260509171231 59 322 1.0 5.0 0.00 0.00 0.00 66 1019.1
20260509170730 59 322 1.0 5.0 0.00 0.00 0.00 66 1019.1
20260509170229 59 183 1.0 7.0 0.00 0.00 0.00 66 1019.2
20260509170030 58 179 1.0 7.0 0.00 0.00 0.00 66 1019.2
20260509165230 58 301 1.0 7.0 0.00 0.00 0.00 66 1019.2
20260509165032 58 301 1.0 7.0 0.00 0.00 0.00 67 1019.1
20260509164232 58 294 1.0 7.0 0.00 0.00 0.00 69 1019.0
20260509163731 58 295 1.0 7.0 0.00 0.00 0.00 69 1019.1
20260509163230 58 279 1.0 6.0 0.00 0.00 0.00 70 1019.0
20260509162728 57 286 1.0 7.0 0.00 0.00 0.00 71 1019.1
20260509162235 57 290 2.0 8.0 0.00 0.00 0.00 72 1019.1
20260509161732 56 282 1.0 8.0 0.00 0.00 0.00 71 1019.1
20260509161233 56 291 1.0 4.0 0.00 0.00 0.00 72 1019.1
20260509160736 56 291 1.0 5.0 0.00 0.00 0.00 73 1019.3
20260509160541 55 287 1.0 5.0 0.00 0.00 0.00 74 1019.2
20260509155731 55 291 2.0 6.0 0.00 0.00 0.00 74 1019.2
20260509155231 55 274 1.0 6.0 0.00 0.00 0.00 75 1019.1
20260509154732 54 293 2.0 5.0 0.00 0.00 0.00 77 1019.0
20260509154230 54 280 2.0 5.0 0.00 0.00 0.00 77 1019.0
20260509153848 53 298 1.0 8.0 0.00 0.00 0.00 78 1019.0
20260509153822 54 290 1.0 5.0 0.00 0.00 0.00 77 1018.9
20260509152730 53 301 1.0 8.0 0.00 0.00 0.00 78 1018.9
20260509152231 53 295 1.0 4.0 0.00 0.00 0.00 79 1019.0
20260509151731 53 293 0.0 3.0 0.00 0.00 0.00 80 1019.0
20260509151229 52 293 0.0 3.0 0.00 0.00 0.00 82 1018.9
20260509151027 51 291 0.0 4.0 0.00 0.00 0.00 82 1019.1
20260509150232 51 291 1.0 4.0 0.00 0.00 0.00 83 1018.9
20260509145730 51 290 1.0 3.0 0.00 0.00 0.00 84 1018.9
20260509145234 50 291 0.0 4.0 0.00 0.00 0.00 85 1018.8
20260509144732 49 286 0.0 4.0 0.00 0.00 0.00 85 1018.8
20260509144232 49 286 0.0 3.0 0.00 0.00 0.00 85 1018.9
20260509143732 49 287 0.0 2.0 0.00 0.00 0.00 86 1018.8
20260509143233 48 287 0.0 2.0 0.00 0.00 0.00 86 1018.9
20260509143038 48 287 0.0 2.0 0.00 0.00 0.00 87 1018.8
20260509142234 48 286 0.0 2.0 0.00 0.00 0.00 87 1018.8
20260509141730 47 286 0.0 2.0 0.00 0.00 0.00 87 1018.6
20260509141229 47 287 0.0 2.0 0.00 0.00 0.00 87 1018.6
20260509141035 47 286 0.0 2.0 0.00 0.00 0.00 87 1018.5
20260509140231 47 287 0.0 0.0 0.00 0.00 0.00 87 1018.5
20260509140035 47 287 0.0 0.0 0.00 0.00 0.00 87 1018.4
20260509135231 47 287 0.0 0.0 0.00 0.00 0.00 87 1018.4
20260509134730 47 287 0.0 0.0 0.00 0.00 0.00 87 1018.4
20260509134530 46 286 0.0 0.0 0.00 0.00 0.00 87 1018.3
20260509133729 46 287 0.0 0.0 0.00 0.00 0.00 87 1018.2
20260509133229 46 287 0.0 0.0 0.00 0.00 0.00 87 1018.3
20260509133027 46 286 0.0 0.0 0.00 0.00 0.00 87 1018.2
20260509132233 46 287 0.0 0.0 0.00 0.00 0.00 87 1018.0
20260509131728 46 287 0.0 0.0 0.00 0.00 0.00 87 1018.0
20260509131227 46 287 0.0 0.0 0.00 0.00 0.00 86 1018.0
20260509130724 46 286 0.0 0.0 0.00 0.00 0.00 86 1018.0
20260509130222 46 287 0.0 0.0 0.00 0.00 0.00 86 1017.9
20260509125716 46 287 0.0 0.0 0.00 0.00 0.00 86 1017.8
20260509125218 46 286 0.0 1.0 0.00 0.00 0.00 86 1017.6
20260509124718 46 287 0.0 2.0 0.00 0.00 0.00 87 1017.6
20260509124520 46 287 0.0 2.0 0.00 0.00 0.00 87 1017.5
20260509123716 46 286 0.0 1.0 0.00 0.00 0.00 87 1017.5
20260509123214 46 287 0.0 0.0 0.00 0.00 0.00 86 1017.3
20260509122713 46 286 0.0 0.0 0.00 0.00 0.00 86 1017.2
20260509122212 47 286 0.0 0.0 0.00 0.00 0.00 86 1017.2
20260509121710 47 287 0.0 0.0 0.00 0.00 0.00 86 1017.2
20260509121210 47 287 0.0 0.0 0.00 0.00 0.00 86 1017.1
20260509121013 47 286 0.0 0.0 0.00 0.00 0.00 86 1017.0
20260509120207 47 287 0.0 0.0 0.00 0.00 0.00 86 1016.9
20260509115707 47 286 0.0 0.0 0.00 0.00 0.00 85 1016.9
20260509115207 47 286 0.0 0.0 0.00 0.00 0.00 85 1016.8
20260509115007 47 287 0.0 0.0 0.00 0.00 0.00 84 1016.9
20260509114510 47 286 0.0 0.0 0.00 0.00 0.00 84 1016.8
20260509113706 47 287 0.0 0.0 0.00 0.00 0.00 84 1016.9
20260509113204 47 287 0.0 0.0 0.00 0.00 0.00 84 1016.8
20260509113009 47 287 0.0 0.0 0.00 0.00 0.00 84 1016.8
20260509112250 47 286 0.0 0.0 0.00 0.00 0.00 84 1016.8
20260509111202 47 286 0.0 1.0 0.00 0.00 0.00 84 1016.7
20260509110702 47 286 0.0 0.0 0.00 0.00 0.00 83 1016.8
20260509110202 48 287 0.0 0.0 0.00 0.00 0.00 83 1016.5
20260509105701 48 287 0.0 0.0 0.00 0.00 0.00 83 1016.6
20260509105505 48 286 0.0 0.0 0.00 0.00 0.00 83 1016.6
20260509104701 48 287 0.0 0.0 0.00 0.00 0.00 83 1016.5
20260509104201 48 287 0.0 0.0 0.00 0.00 0.00 83 1016.4
20260509103702 48 286 0.0 1.0 0.00 0.00 0.00 83 1016.3
20260509103201 48 286 0.0 1.0 0.00 0.00 0.00 82 1016.3
20260509102752 48 287 0.0 0.0 0.00 0.00 0.00 82 1016.3
20260509101702 49 286 0.0 0.0 0.00 0.00 0.00 82 1016.3
20260509101201 49 287 0.0 0.0 0.00 0.00 0.00 82 1016.3
20260509100701 49 287 0.0 0.0 0.00 0.00 0.00 82 1016.3
20260509100203 49 287 0.0 0.0 0.00 0.00 0.00 82 1016.3
20260509095702 49 286 0.0 0.0 0.00 0.00 0.00 82 1016.3
20260509095202 49 287 0.0 0.0 0.00 0.00 0.00 81 1016.3
20260509095006 50 287 0.0 0.0 0.00 0.00 0.00 81 1016.3
20260509094202 50 287 0.0 0.0 0.00 0.00 0.00 81 1015.9
20260509093700 50 286 0.0 0.0 0.00 0.00 0.00 80 1015.8
20260509093202 50 287 0.0 0.0 0.00 0.00 0.00 80 1015.8
20260509092701 50 287 0.0 0.0 0.00 0.00 0.00 80 1015.7
20260509092201 50 287 0.0 0.0 0.00 0.00 0.00 80 1015.7
20260509091702 50 287 0.0 1.0 0.00 0.00 0.00 80 1015.7
20260509091201 51 287 0.0 1.0 0.00 0.00 0.00 80 1015.7
20260509091003 51 287 0.0 0.0 0.00 0.00 0.00 80 1015.6
20260509090504 51 286 0.0 0.0 0.00 0.00 0.00 80 1015.6
20260509085701 51 286 0.0 0.0 0.00 0.00 0.00 80 1015.6
20260509085201 51 287 0.0 0.0 0.00 0.00 0.00 80 1015.6
20260509084959 51 287 0.0 0.0 0.00 0.00 0.00 80 1015.5
20260509084202 51 286 0.0 0.0 0.00 0.00 0.00 81 1015.6
20260509083702 51 287 0.0 0.0 0.00 0.00 0.00 81 1015.5
20260509083201 51 287 0.0 0.0 0.00 0.00 0.00 81 1015.4
20260509082702 51 286 0.0 0.0 0.00 0.00 0.00 81 1015.4
20260509082205 51 286 0.0 0.0 0.00 0.00 0.00 81 1015.4
20260509081957 51 287 0.0 0.0 0.00 0.00 0.00 81 1015.3
20260509081204 51 287 0.0 0.0 0.00 0.00 0.00 80 1015.4
20260509080708 52 286 0.0 0.0 0.00 0.00 0.00 80 1015.3
20260509080206 52 287 0.0 0.0 0.00 0.00 0.00 80 1015.4
20260509075704 52 287 0.0 0.0 0.00 0.00 0.00 80 1015.4
20260509075202 52 287 0.0 0.0 0.00 0.00 0.00 80 1015.2
20260509074702 52 286 0.0 0.0 0.00 0.00 0.00 80 1015.4
20260509074202 53 286 0.0 0.0 0.00 0.00 0.00 79 1015.2
20260509073703 53 287 0.0 0.0 0.00 0.00 0.00 79 1015.2
20260509073202 53 287 0.0 0.0 0.00 0.00 0.00 78 1015.1
20260509072701 53 286 0.0 0.0 0.00 0.00 0.00 78 1015.0
20260509072202 53 287 0.0 0.0 0.00 0.00 0.00 77 1015.1
20260509071702 54 287 0.0 0.0 0.00 0.00 0.00 76 1015.1
20260509071203 54 287 0.0 0.0 0.00 0.00 0.00 75 1014.9
20260509070701 54 286 0.0 0.0 0.00 0.00 0.00 75 1014.8
20260509070202 54 287 0.0 1.0 0.00 0.00 0.00 75 1014.7
20260509065702 54 287 0.0 2.0 0.00 0.00 0.00 74 1014.6
20260509065201 54 287 0.0 2.0 0.00 0.00 0.00 74 1014.6
20260509064702 54 286 0.0 3.0 0.00 0.00 0.00 75 1014.5
20260509064309 54 287 1.0 6.0 0.00 0.00 0.00 75 1014.5
20260509064245 54 286 1.0 4.0 0.00 0.00 0.00 74 1014.6
20260509063201 55 279 1.0 6.0 0.00 0.00 0.00 75 1014.3
20260509062956 55 280 1.0 6.0 0.00 0.00 0.00 76 1014.2
20260509062201 55 275 1.0 6.0 0.00 0.00 0.00 75 1014.3
20260509061701 55 260 1.0 4.0 0.00 0.00 0.00 73 1014.5
20260509061201 56 265 2.0 7.0 0.00 0.00 0.00 73 1014.2
20260509060702 56 266 1.0 7.0 0.00 0.00 0.00 70 1014.3
20260509060202 57 293 0.0 2.0 0.00 0.00 0.00 68 1014.0
20260509055701 56 294 0.0 2.0 0.00 0.00 0.00 67 1014.1
20260509055201 56 294 0.0 3.0 0.00 0.00 0.00 68 1014.3
20260509054702 56 294 1.0 4.0 0.00 0.00 0.00 68 1014.3
20260509054200 56 291 2.0 7.0 0.00 0.00 0.00 69 1014.5
20260509053702 55 270 3.0 8.0 0.00 0.00 0.00 71 1014.7
20260509053202 55 282 4.0 13.0 0.00 0.00 0.00 73 1014.7
20260509052701 56 295 5.0 14.0 0.00 0.00 0.00 73 1014.8
20260509052201 56 283 5.0 14.0 0.00 0.00 0.00 75 1014.9
20260509051702 56 274 5.0 14.0 0.00 0.00 0.00 78 1014.8
20260509051202 56 289 5.0 14.0 0.00 0.00 0.00 79 1014.8
20260509050701 56 304 5.0 12.0 0.00 0.00 0.00 80 1014.5
20260509050200 56 274 5.0 12.0 0.00 0.00 0.00 79 1014.2
20260509045701 56 282 6.0 12.0 0.00 0.00 0.00 78 1014.0
20260509045205 57 291 5.0 12.0 0.00 0.00 0.00 77 1013.8
20260509044706 57 273 5.0 12.0 0.00 0.00 0.00 75 1013.7
20260509044510 58 277 5.0 14.0 0.00 0.00 0.00 73 1013.8
20260509043704 58 309 6.0 14.0 0.00 0.00 0.00 72 1013.8
20260509043509 58 277 6.0 15.0 0.00 0.00 0.00 70 1013.7
20260509042704 59 264 6.0 16.0 0.00 0.00 0.00 68 1013.7
20260509042205 60 279 5.0 16.0 0.00 0.00 0.00 65 1013.6
20260509041705 61 295 4.0 11.0 0.00 0.00 0.00 62 1013.6
20260509041204 62 285 3.0 11.0 0.00 0.00 0.00 59 1013.3
20260509040705 63 291 1.0 9.0 0.00 0.00 0.00 54 1013.1
20260509040207 63 83 0.0 2.0 0.00 0.00 0.00 46 1012.9
20260509035706 63 84 0.0 1.0 0.00 0.00 0.00 46 1012.5
20260509035316 63 84 0.0 1.0 0.00 0.00 0.00 44 1012.4
20260509035251 63 84 0.0 1.0 0.00 0.00 0.00 45 1012.5